SCP
-0 -0 -0 -0 -0 -0 0 -0 -0 -0 -0 -0 0 0 0 -0 0 0 0 0 0 0 0 0 0 0 0 0 0 0 0 0 0 0 0 -0 -0 -0 -0 0 0 0 0
-0 -0 -0 -0 -0 -0 -0 -0 0 0 0 -0 -0 -0 0 -0 -0 -0 0 0 0 0 0 0 0 0 0 0 0 0 0 0 0 0 -0 -0 0 -0 -0 0 0 0 0
0 -0 -0 -0 -0 -0 -0 -0 -0 -0 -0 0 0 0 0 0 0 0 0 0 0 0 0 0 0 0 0 0 0 0 0 0 0 0 0 0 0 0 0 0 0 0 0
0 0 -0 -0 -0 -0 -0 -0 -0 -0 -0 -0 -0 -0 0 0 0 0 0 0 0 0 0 0 0 0 0 0 0 0 0 0 0 0 0 0 0 0 0 0 0 0 0
0 -0 -0 -0 -0 -0 -0 -0 -0 -0 -0 -0 -0 -0 0 0 0 0 0 0 0 0 0 0 0 0 0 0 0 0 0 0 0 0 0 0 0 0 0 0 0 0 0
0 0 -0 -0 -0 -0 -0 -0 -0 -0 -0 -0 -0 -0 -0 0 0 0 0 0 0 0 0 0 0 0 0 0 0 0 0 0 1 0 0 0 0 0 0 0 0 0 0
0 0 0 -0 -0 -0 -0 -0 -0 -0 -0 -0 -0 -0 -0 0 0 0 0 0 0 0 0 0 0 0 0 0 0 0 0 0 0 0 0 0 0 0 0 1 1 1 1
0 0 0 0 -0 -0 -0 -0 -0 -0 -0 -0 -0 -0 -0 0 0 0 0 0 0 0 0 0 0 0 0 0 0 0 0 0 0 0 0 0 0 0 0 1 1 1 1
0 0 0 0 0 0 0 0 0 0 0 0 0 0 0 0 0 0 0 0 0 0 0 0 0 0 0 0 0 0 0 0 0 0 0 0 0 0 0 1 1 1 1
0 0 0 0 0 0 0 0 0 0 0 0 0 0 0 0 0 0 0 0 0 0 0 0 0 0 0 0 0 0 0 0 0 0 0 0 0 0 0 0 0 1 1
0 0 0 0 0 0 0 0 0 0 0 0 0 0 0 0 0 0 0 0 0 0 0 0 0 0 0 0 0 0 0 0 0 0 0 0 0 0 0 1 1 1 1
0 0 0 0 0 0 0 0 0 0 0 0 0 0 0 0 0 0 0 0 0 0 0 0 0 0 0 0 0 0 0 0 0 0 0 0 0 0 0 0 1 1 1
0 0 0 0 0 0 0 0 0 0 0 0 0 0 0 0 0 0 0 0 0 0 0 0 0 0 0 0 0 0 0 0 0 0 0 0 0 0 0 0 1 1 1
0 0 0 0 0 0 0 0 0 0 0 0 0 0 -0 -0 0 0 0 0 0 0 0 0 0 0 0 0 0 0 0 0 0 0 0 0 0 0 0 0 1 1 1
0 0 0 0 0 0 0 0 0 0 0 0 0 0 0 0 0 0 0 0 0 0 0 0 0 0 0 0 0 0 0 0 0 0 0 0 0 0 0 0 1 1 1
0 0 0 0 0 0 0 0 0 0 0 0 -0 -0 -0 -0 -0 -0 -0 -0 -0 0 0 0 0 0 0 0 0 0 0 0 0 0 0 0 0 0 0 0 1 1 1
0 0 0 0 0 0 0 0 0 0 0 0 0 0 0 -0 -0 -0 -0 -0 -0 -0 -0 0 0 0 0 0 0 0 0 0 0 0 0 0 0 0 0 0 0 1 1
0 0 0 0 0 0 0 0 0 0 0 0 0 0 0 0 -0 -0 -0 -0 -0 -0 -0 -0 -0 0 0 0 0 0 0 0 0 0 0 0 0 0 0 0 0 0 1
0 0 0 0 0 0 0 0 0 0 0 0 0 0 0 0 -0 -0 -0 -0 -0 -0 -0 -0 -0 -0 -0 0 0 0 0 0 0 0 0 0 0 0 0 0 0 0 0
0 0 0 0 0 0 0 0 0 0 0 -0 0 0 0 0 0 0 -0 -0 -0 -0 -0 -0 -0 -0 0 0 0 0 0 0 0 0 0 0 0 0 0 0 0 0 0
0 0 0 0 0 0 0 0 0 0 0 0 0 0 0 0 0 0 0 0 -0 -0 0 -0 -0 -0 -0 0 0 0 0 0 0 0 0 0 0 0 0 0 0 0 0
0 0 0 0 0 0 0 0 0 0 0 -0 -0 0 0 0 0 0 0 0 0 0 0 -0 -0 0 0 0 0 0 0 0 0 0 0 0 0 0 0 0 0 0 0
0 0 0 0 0 0 0 0 0 0 -0 -0 -0 0 0 0 0 0 0 0 0 0 0 0 0 0 0 0 0 0 0 0 0 0 0 0 0 0 0 0 0 0 0
0 0 0 0 0 0 0 0 0 0 0 -0 0 0 0 0 0 0 0 0 0 0 0 0 0 0 0 0 0 0 0 0 0 -0 0 0 0 0 0 0 0 0 0
0 0 0 0 0 0 0 0 0 0 0 0 0 0 0 0 0 0 0 0 0 0 0 0 0 0 0 0 0 0 0 0 0 0 -0 0 0 0 0 0 0 0 0
0 0 0 0 0 0 0 0 0 0 0 0 0 0 0 0 0 0 0 0 0 0 0 0 0 0 0 0 0 0 0 0 0 0 0 -0 0 -0 -0 0 0 0 0
Wind_Speed_500mb
16 16 16 11 8 1 4 5 7 7 9 10 10 12 15 18 19 19 18 17 18 23 27 29 32 36 32 29 27 24 25 25 25 25 22 21 21 24 24 24 22 23 25
18 19 15 7 2 2 1 4 4 5 9 14 17 17 17 17 20 22 23 27 28 23 23 27 29 30 36 35 32 28 28 31 30 30 27 24 25 25 24 27 26 25 28
19 19 16 9 4 6 6 8 9 10 10 12 15 17 20 24 25 26 25 26 30 31 31 28 31 32 32 35 33 32 32 33 34 32 32 31 31 25 24 24 26 29 31
15 17 13 7 7 8 13 14 12 11 11 15 19 18 21 24 26 29 31 31 31 32 33 35 34 34 33 35 37 31 35 35 36 34 36 38 35 28 29 25 28 31 33
11 10 8 11 8 7 11 19 20 20 24 24 20 22 25 26 27 28 32 35 37 36 37 38 38 38 37 37 37 35 34 37 37 38 39 40 39 37 35 31 28 32 35
5 7 5 8 8 8 6 9 15 23 28 32 36 37 32 29 31 33 31 33 37 39 40 42 43 42 40 40 38 39 37 39 42 40 43 44 44 41 38 36 33 33 35
3 7 9 10 11 12 14 16 16 17 20 25 29 33 37 40 42 40 40 39 37 39 40 43 43 45 45 44 43 41 44 42 44 47 46 47 49 45 44 42 40 37 38
6 2 1 4 7 10 13 17 21 24 26 27 28 28 33 40 45 50 50 49 47 43 38 45 46 46 49 49 48 48 46 47 48 52 50 51 50 53 50 49 46 46 45
8 5 0 4 8 11 15 18 20 24 27 31 36 38 37 35 39 45 50 52 54 54 54 47 44 48 51 51 53 52 52 50 53 55 56 54 55 55 58 55 54 52 50
11 7 2 3 8 12 15 17 21 25 29 31 34 36 41 44 42 40 42 48 55 56 56 55 54 49 50 53 54 55 57 57 58 59 60 61 57 58 63 63 63 61 56
15 11 4 2 8 13 18 23 25 29 32 33 35 37 35 36 42 48 46 46 49 55 57 57 56 55 55 56 57 59 56 63 62 63 64 63 64 59 67 70 70 68 63
19 9 4 3 7 11 15 20 26 29 33 37 39 40 41 42 42 42 47 53 53 52 52 61 61 61 62 61 60 61 65 65 66 69 69 66 67 67 67 76 75 74 71
15 9 9 7 8 11 16 22 24 28 30 34 37 41 42 44 45 47 44 46 51 55 58 56 60 68 63 64 67 66 67 71 73 75 77 72 70 71 70 79 80 82 79
17 15 13 10 7 10 17 21 24 24 27 30 36 41 47 50 51 51 52 55 54 57 61 61 65 61 71 66 62 67 71 73 80 83 84 81 78 76 73 77 87 86 84
20 15 12 10 9 13 17 19 22 26 30 32 36 42 46 49 51 53 55 54 54 57 59 65 69 71 71 74 77 73 70 75 79 90 92 91 86 85 80 79 85 90 92
21 18 15 12 11 13 17 23 26 30 35 39 43 48 52 57 61 63 62 60 58 58 57 64 69 72 77 77 80 92 85 76 79 84 94 97 98 93 89 84 87 96 98
26 20 16 13 14 15 19 22 26 30 33 37 41 46 52 58 62 64 68 70 69 69 70 64 62 70 78 80 83 84 95 100 82 73 84 96 103 101 96 91 93 99 104
26 20 17 17 16 16 19 23 27 31 34 38 43 47 54 58 62 64 67 72 76 77 78 80 81 74 70 78 90 93 89 95 104 91 75 92 98 104 102 97 93 102 108
32 27 23 19 17 18 22 26 30 34 38 40 43 48 53 57 61 66 68 72 78 83 84 84 85 82 86 80 81 91 101 97 100 108 93 83 101 100 105 106 99 102 112
36 31 23 18 19 21 24 29 34 37 41 46 50 53 57 59 62 65 68 70 76 84 86 87 88 84 81 84 85 94 97 110 105 108 110 96 97 106 103 104 105 103 113
38 31 25 22 21 23 28 34 38 42 44 47 51 56 60 61 62 65 70 75 76 81 84 85 86 87 82 70 85 94 103 111 117 112 119 106 98 107 112 106 103 109 110
41 34 29 24 22 25 29 35 42 48 51 53 55 57 61 62 64 68 71 75 79 85 86 86 84 87 89 72 61 74 78 87 95 93 99 113 106 108 105 110 104 108 111
51 40 32 25 22 24 28 35 42 48 55 60 63 64 65 66 67 72 73 73 77 83 88 90 89 86 92 88 73 58 41 39 51 52 61 75 99 96 112 114 107 107 115
53 43 32 26 22 25 29 37 45 52 58 61 64 67 68 67 68 71 77 77 79 83 90 95 93 88 80 94 81 75 79 91 74 69 72 61 57 83 91 121 111 110 114
55 43 33 27 25 26 31 40 48 52 57 65 69 74 74 74 73 72 77 76 81 85 91 94 93 85 77 76 72 70 68 87 89 81 83 83 89 61 63 54 112 107 108
57 45 35 30 28 28 33 41 49 54 62 68 70 74 78 80 79 76 77 80 82 87 92 97 96 87 88 92 88 92 91 71 71 72 76 78 80 104 82 56 65 106 109
Wind_Direction_500mb
358 356 351 29 37 359 288 297 301 301 305 303 313 314 310 307 309 307 302 295 291 294 297 293 291 292 288 285 285 285 262 257 255 255 257 257 260 266 257 249 236 228 218
342 336 347 354 24 143 242 271 255 312 313 315 315 309 303 305 304 302 304 310 310 304 302 303 294 283 284 285 285 281 275 258 255 252 253 259 256 260 254 248 236 225 221
319 328 321 323 288 232 209 221 221 228 255 273 285 297 302 305 302 297 292 299 303 304 305 304 306 301 286 279 276 278 272 263 259 254 255 252 257 257 251 250 233 219 217
338 337 335 313 298 266 246 242 240 239 249 262 267 280 282 279 286 292 290 289 291 295 295 300 300 301 297 285 280 271 271 265 261 253 247 250 254 248 247 241 231 216 215
338 335 351 345 351 302 271 254 258 261 260 254 262 269 269 271 273 276 277 281 283 286 289 293 294 296 299 295 283 280 271 263 261 258 249 244 249 246 240 233 227 222 215
357 32 19 25 11 9 356 306 281 276 278 277 270 265 264 273 278 278 281 284 285 284 284 286 290 291 290 292 290 284 279 270 260 257 253 247 242 245 238 234 226 224 218
114 72 61 50 40 28 17 12 2 344 323 305 296 289 284 278 277 281 280 279 283 284 283 283 281 284 287 285 283 280 278 276 268 259 256 251 247 241 233 236 230 225 222
202 187 26 13 12 8 4 354 346 340 330 321 316 309 296 287 282 277 275 276 277 276 278 277 278 278 279 280 278 277 276 276 273 265 257 255 245 244 236 232 233 231 226
209 206 223 29 12 2 355 348 342 334 325 315 307 301 298 298 289 282 276 274 272 275 275 273 272 275 276 275 274 273 270 272 273 271 261 255 250 239 240 228 231 231 229
220 221 225 6 8 6 2 355 349 345 337 329 318 307 296 291 289 291 289 275 272 269 269 271 271 269 270 271 272 271 270 266 267 268 268 258 253 243 239 232 228 229 230
208 210 195 338 353 357 2 7 3 358 353 345 337 328 318 310 300 293 293 290 284 276 272 270 269 269 268 265 267 267 268 267 264 264 265 264 256 248 239 236 228 228 228
210 210 235 312 344 357 4 7 8 2 356 352 348 341 335 329 325 317 306 299 292 289 284 275 272 271 269 268 264 262 262 264 265 263 262 263 262 254 242 238 233 229 230
220 240 266 290 311 339 354 6 6 3 360 355 348 342 337 331 326 322 319 312 305 296 285 281 275 268 270 270 265 264 260 260 260 260 262 260 261 259 250 242 237 231 231
220 228 239 258 294 340 360 2 3 360 357 353 349 343 339 335 331 329 325 323 322 317 308 298 285 282 266 270 273 270 264 263 261 260 259 258 257 260 254 247 241 234 229
228 242 263 291 328 2 4 360 357 354 351 351 347 343 340 338 336 334 330 327 321 318 314 309 303 295 285 272 265 268 271 267 265 262 260 258 255 256 256 248 243 235 229
229 241 265 292 329 349 351 353 351 350 348 347 345 344 341 339 337 337 336 334 329 322 316 312 311 305 297 288 280 265 267 269 267 268 261 259 257 254 253 249 243 239 232
230 242 263 289 306 331 339 340 343 344 341 341 341 341 337 336 336 336 335 334 333 329 323 316 309 305 303 297 289 280 267 264 266 268 269 259 258 256 253 249 242 239 235
232 245 261 276 299 315 328 334 339 340 340 339 337 338 335 333 332 332 331 332 331 328 326 324 321 313 303 297 293 287 279 267 259 264 264 265 260 257 256 249 243 238 237
232 242 254 270 289 313 324 331 335 336 334 335 335 334 332 329 329 330 331 330 327 325 324 322 319 315 309 301 291 286 284 276 264 255 261 258 259 258 256 255 246 239 236
230 241 254 273 295 308 321 328 330 331 335 334 332 332 330 329 327 325 325 324 324 322 321 320 317 313 307 301 294 287 280 276 272 261 253 253 253 254 257 254 253 241 235
229 240 255 275 295 315 322 323 327 331 332 329 328 328 326 326 326 325 324 324 323 319 317 317 318 314 307 300 288 285 282 277 272 267 256 249 249 249 254 255 251 248 237
232 240 255 270 292 308 318 324 327 327 328 329 329 328 326 326 325 323 325 323 322 322 322 321 319 312 303 296 287 285 288 288 272 273 262 251 249 247 254 250 249 246 241
228 238 251 264 285 305 315 321 322 323 328 331 329 327 325 324 325 324 323 321 321 322 320 320 315 308 300 291 275 266 276 263 287 282 260 255 247 252 251 254 245 244 242
228 236 246 258 282 299 313 320 322 326 326 328 325 323 321 321 323 322 321 321 321 320 318 316 312 304 295 288 282 253 262 261 269 287 278 257 246 232 240 246 245 242 239
227 234 241 254 278 298 313 318 320 324 325 323 323 320 319 318 320 322 319 318 316 316 315 312 308 299 290 280 273 274 262 259 256 259 271 277 262 246 239 229 235 237 239
225 231 238 251 276 297 311 315 320 322 323 322 319 316 316 318 319 320 317 315 314 314 313 311 305 296 288 281 269 257 256 266 252 251 255 266 273 258 245 256 262 237 238
Wind_Speed_850mb
16 16 16 11 8 1 4 5 7 7 9 10 10 12 15 18 19 19 18 17 18 23 27 29 32 36 32 29 27 24 25 25 25 25 22 21 21 24 24 24 22 23 25
18 19 15 7 2 2 1 4 4 5 9 14 17 17 17 17 20 22 23 27 28 23 23 27 29 30 36 35 32 28 28 31 30 30 27 24 25 25 24 27 26 25 28
19 19 16 9 4 6 6 8 9 10 10 12 15 17 20 24 25 26 25 26 30 31 31 28 31 32 32 35 33 32 32 33 34 32 32 31 31 25 24 24 26 29 31
15 17 13 7 7 8 13 14 12 11 11 15 19 18 21 24 26 29 31 31 31 32 33 35 34 34 33 35 37 31 35 35 36 34 36 38 35 28 29 25 28 31 33
11 10 8 11 8 7 11 19 20 20 24 24 20 22 25 26 27 28 32 35 37 36 37 38 38 38 37 37 37 35 34 37 37 38 39 40 39 37 35 31 28 32 35
5 7 5 8 8 8 6 9 15 23 28 32 36 37 32 29 31 33 31 33 37 39 40 42 43 42 40 40 38 39 37 39 42 40 43 44 44 41 38 36 33 33 35
3 7 9 10 11 12 14 16 16 17 20 25 29 33 37 40 42 40 40 39 37 39 40 43 43 45 45 44 43 41 44 42 44 47 46 47 49 45 44 42 40 37 38
6 2 1 4 7 10 13 17 21 24 26 27 28 28 33 40 45 50 50 49 47 43 38 45 46 46 49 49 48 48 46 47 48 52 50 51 50 53 50 49 46 46 45
8 5 0 4 8 11 15 18 20 24 27 31 36 38 37 35 39 45 50 52 54 54 54 47 44 48 51 51 53 52 52 50 53 55 56 54 55 55 58 55 54 52 50
11 7 2 3 8 12 15 17 21 25 29 31 34 36 41 44 42 40 42 48 55 56 56 55 54 49 50 53 54 55 57 57 58 59 60 61 57 58 63 63 63 61 56
15 11 4 2 8 13 18 23 25 29 32 33 35 37 35 36 42 48 46 46 49 55 57 57 56 55 55 56 57 59 56 63 62 63 64 63 64 59 67 70 70 68 63
19 9 4 3 7 11 15 20 26 29 33 37 39 40 41 42 42 42 47 53 53 52 52 61 61 61 62 61 60 61 65 65 66 69 69 66 67 67 67 76 75 74 71
15 9 9 7 8 11 16 22 24 28 30 34 37 41 42 44 45 47 44 46 51 55 58 56 60 68 63 64 67 66 67 71 73 75 77 72 70 71 70 79 80 82 79
17 15 13 10 7 10 17 21 24 24 27 30 36 41 47 50 51 51 52 55 54 57 61 61 65 61 71 66 62 67 71 73 80 83 84 81 78 76 73 77 87 86 84
20 15 12 10 9 13 17 19 22 26 30 32 36 42 46 49 51 53 55 54 54 57 59 65 69 71 71 74 77 73 70 75 79 90 92 91 86 85 80 79 85 90 92
21 18 15 12 11 13 17 23 26 30 35 39 43 48 52 57 61 63 62 60 58 58 57 64 69 72 77 77 80 92 85 76 79 84 94 97 98 93 89 84 87 96 98
26 20 16 13 14 15 19 22 26 30 33 37 41 46 52 58 62 64 68 70 69 69 70 64 62 70 78 80 83 84 95 100 82 73 84 96 103 101 96 91 93 99 104
26 20 17 17 16 16 19 23 27 31 34 38 43 47 54 58 62 64 67 72 76 77 78 80 81 74 70 78 90 93 89 95 104 91 75 92 98 104 102 97 93 102 108
32 27 23 19 17 18 22 26 30 34 38 40 43 48 53 57 61 66 68 72 78 83 84 84 85 82 86 80 81 91 101 97 100 108 93 83 101 100 105 106 99 102 112
36 31 23 18 19 21 24 29 34 37 41 46 50 53 57 59 62 65 68 70 76 84 86 87 88 84 81 84 85 94 97 110 105 108 110 96 97 106 103 104 105 103 113
38 31 25 22 21 23 28 34 38 42 44 47 51 56 60 61 62 65 70 75 76 81 84 85 86 87 82 70 85 94 103 111 117 112 119 106 98 107 112 106 103 109 110
41 34 29 24 22 25 29 35 42 48 51 53 55 57 61 62 64 68 71 75 79 85 86 86 84 87 89 72 61 74 78 87 95 93 99 113 106 108 105 110 104 108 111
51 40 32 25 22 24 28 35 42 48 55 60 63 64 65 66 67 72 73 73 77 83 88 90 89 86 92 88 73 58 41 39 51 52 61 75 99 96 112 114 107 107 115
53 43 32 26 22 25 29 37 45 52 58 61 64 67 68 67 68 71 77 77 79 83 90 95 93 88 80 94 81 75 79 91 74 69 72 61 57 83 91 121 111 110 114
55 43 33 27 25 26 31 40 48 52 57 65 69 74 74 74 73 72 77 76 81 85 91 94 93 85 77 76 72 70 68 87 89 81 83 83 89 61 63 54 112 107 108
57 45 35 30 28 28 33 41 49 54 62 68 70 74 78 80 79 76 77 80 82 87 92 97 96 87 88 92 88 92 91 71 71 72 76 78 80 104 82 56 65 106 109
Wind_Direction_850mb
358 356 351 29 37 359 288 297 301 301 305 303 313 314 310 307 309 307 302 295 291 294 297 293 291 292 288 285 285 285 262 257 255 255 257 257 260 266 257 249 236 228 218
342 336 347 354 24 143 242 271 255 312 313 315 315 309 303 305 304 302 304 310 310 304 302 303 294 283 284 285 285 281 275 258 255 252 253 259 256 260 254 248 236 225 221
319 328 321 323 288 232 209 221 221 228 255 273 285 297 302 305 302 297 292 299 303 304 305 304 306 301 286 279 276 278 272 263 259 254 255 252 257 257 251 250 233 219 217
338 337 335 313 298 266 246 242 240 239 249 262 267 280 282 279 286 292 290 289 291 295 295 300 300 301 297 285 280 271 271 265 261 253 247 250 254 248 247 241 231 216 215
338 335 351 345 351 302 271 254 258 261 260 254 262 269 269 271 273 276 277 281 283 286 289 293 294 296 299 295 283 280 271 263 261 258 249 244 249 246 240 233 227 222 215
357 32 19 25 11 9 356 306 281 276 278 277 270 265 264 273 278 278 281 284 285 284 284 286 290 291 290 292 290 284 279 270 260 257 253 247 242 245 238 234 226 224 218
114 72 61 50 40 28 17 12 2 344 323 305 296 289 284 278 277 281 280 279 283 284 283 283 281 284 287 285 283 280 278 276 268 259 256 251 247 241 233 236 230 225 222
202 187 26 13 12 8 4 354 346 340 330 321 316 309 296 287 282 277 275 276 277 276 278 277 278 278 279 280 278 277 276 276 273 265 257 255 245 244 236 232 233 231 226
209 206 223 29 12 2 355 348 342 334 325 315 307 301 298 298 289 282 276 274 272 275 275 273 272 275 276 275 274 273 270 272 273 271 261 255 250 239 240 228 231 231 229
220 221 225 6 8 6 2 355 349 345 337 329 318 307 296 291 289 291 289 275 272 269 269 271 271 269 270 271 272 271 270 266 267 268 268 258 253 243 239 232 228 229 230
208 210 195 338 353 357 2 7 3 358 353 345 337 328 318 310 300 293 293 290 284 276 272 270 269 269 268 265 267 267 268 267 264 264 265 264 256 248 239 236 228 228 228
210 210 235 312 344 357 4 7 8 2 356 352 348 341 335 329 325 317 306 299 292 289 284 275 272 271 269 268 264 262 262 264 265 263 262 263 262 254 242 238 233 229 230
220 240 266 290 311 339 354 6 6 3 360 355 348 342 337 331 326 322 319 312 305 296 285 281 275 268 270 270 265 264 260 260 260 260 262 260 261 259 250 242 237 231 231
220 228 239 258 294 340 360 2 3 360 357 353 349 343 339 335 331 329 325 323 322 317 308 298 285 282 266 270 273 270 264 263 261 260 259 258 257 260 254 247 241 234 229
228 242 263 291 328 2 4 360 357 354 351 351 347 343 340 338 336 334 330 327 321 318 314 309 303 295 285 272 265 268 271 267 265 262 260 258 255 256 256 248 243 235 229
229 241 265 292 329 349 351 353 351 350 348 347 345 344 341 339 337 337 336 334 329 322 316 312 311 305 297 288 280 265 267 269 267 268 261 259 257 254 253 249 243 239 232
230 242 263 289 306 331 339 340 343 344 341 341 341 341 337 336 336 336 335 334 333 329 323 316 309 305 303 297 289 280 267 264 266 268 269 259 258 256 253 249 242 239 235
232 245 261 276 299 315 328 334 339 340 340 339 337 338 335 333 332 332 331 332 331 328 326 324 321 313 303 297 293 287 279 267 259 264 264 265 260 257 256 249 243 238 237
232 242 254 270 289 313 324 331 335 336 334 335 335 334 332 329 329 330 331 330 327 325 324 322 319 315 309 301 291 286 284 276 264 255 261 258 259 258 256 255 246 239 236
230 241 254 273 295 308 321 328 330 331 335 334 332 332 330 329 327 325 325 324 324 322 321 320 317 313 307 301 294 287 280 276 272 261 253 253 253 254 257 254 253 241 235
229 240 255 275 295 315 322 323 327 331 332 329 328 328 326 326 326 325 324 324 323 319 317 317 318 314 307 300 288 285 282 277 272 267 256 249 249 249 254 255 251 248 237
232 240 255 270 292 308 318 324 327 327 328 329 329 328 326 326 325 323 325 323 322 322 322 321 319 312 303 296 287 285 288 288 272 273 262 251 249 247 254 250 249 246 241
228 238 251 264 285 305 315 321 322 323 328 331 329 327 325 324 325 324 323 321 321 322 320 320 315 308 300 291 275 266 276 263 287 282 260 255 247 252 251 254 245 244 242
228 236 246 258 282 299 313 320 322 326 326 328 325 323 321 321 323 322 321 321 321 320 318 316 312 304 295 288 282 253 262 261 269 287 278 257 246 232 240 246 245 242 239
227 234 241 254 278 298 313 318 320 324 325 323 323 320 319 318 320 322 319 318 316 316 315 312 308 299 290 280 273 274 262 259 256 259 271 277 262 246 239 229 235 237 239
225 231 238 251 276 297 311 315 320 322 323 322 319 316 316 318 319 320 317 315 314 314 313 311 305 296 288 281 269 257 256 266 252 251 255 266 273 258 245 256 262 237 238